GEOSCAN 6 (RS92S6)

Last updated on Mon Sep 21 2026 00:03:15 GMT+0000 (Coordinated Universal Time)

1 64879U 25155D 26263.60587196 .00007448 00000+0 24494-3 0 9991 2 64879 97.4672 232.7036 0007120 181.8893 178.2323 15.31803986 95365
UTC large
Height (km)
Speed (km/s)
/
Latitude / Longitude
Inclination (degrees)
Orbital Period (minutes)
Azimuth
Elevation
Range (km)
Doppler Factor

Next 0 passes for location: London (51.5072 / 0.1276)

No passes found over London.
GEOSCAN 6 (RS92S6)